Date,TemperatureHighF,TemperatureAvgF,TemperatureLowF,DewpointHighF,DewpointAvgF,DewpointLowF,HumidityHigh,HumidityAvg,HumidityLow,PressureMaxIn,PressureMinIn,WindSpeedMaxMPH,WindSpeedAvgMPH,GustSpeedMaxMPH,PrecipitationSumIn
2013-1-1,39.9,34.5,30.2,28.9,20.1,8.5,78,56,31,28.97,28.85,7,2,15,0.00
2013-1-2,45.7,28.9,20.5,15.5,6.7,-4.0,54,39,17,29.12,28.94,5,1,8,0.00
2013-1-3,44.9,28.1,13.3,17.2,6.6,-1.2,63,41,20,29.15,29.03,7,2,14,0.00
2013-1-4,35.2,31.2,28.7,12.2,8.4,5.4,44,35,30,29.21,29.09,10,4,14,0.00
2013-1-5,47.7,32.8,20.2,21.9,10.2,0.2,64,39,19,29.29,29.06,7,2,11,0.00
2013-1-6,41.9,37.1,31.8,20.9,13.9,9.5,55,39,26,29.12,28.94,9,2,14,0.00
2013-1-7,40.4,30.6,19.1,20.7,12.8,5.2,61,47,29,29.32,29.12,6,2,11,0.00
2013-1-8,58.5,30.4,15.7,23.3,11.6,4.8,68,48,17,29.23,29.12,7,1,12,0.00
2013-1-9,48.7,34.2,22.1,41.3,24.7,-99.9,83,68,48,29.35,29.12,7,1,12,0.00
2013-1-10,54.2,35.7,27.6,36.7,25.1,19.3,84,67,29,29.47,29.15,2,0,3,0.00
2013-1-11,64.0,47.2,34.5,49.8,38.3,24.9,92,72,37,29.15,28.85,8,0,12,0.00
2013-1-12,54.4,45.0,41.9,54.1,43.8,40.9,100,95,89,29.03,28.91,1,0,2,0.00
2013-1-26,30.2,26.6,23.9,13.3,9.9,4.2,51,45,36,29.32,29.18,3,0,6,0.00
2013-1-27,57.6,32.5,11.7,13.0,5.8,-3.4,57,33,16,29.38,29.15,4,0,6,0.00
2013-1-28,57.0,44.1,32.2,50.6,33.2,9.1,91,68,36,29.18,28.97,8,2,16,0.00
2013-1-29,76.0,57.1,44.1,56.2,41.3,26.3,97,64,18,29.00,28.76,7,2,12,0.00
2013-1-30,76.0,55.4,40.7,58.0,42.3,27.7,97,67,18,28.76,28.26,19,2,30,0.00
2013-1-31,48.8,31.7,23.8,35.4,9.9,-4.6,63,39,20,28.82,28.23,14,6,25,0.00
2013-2-1,25.9,17.5,3.1,15.7,-3.9,-17.0,63,35,21,29.26,28.76,12,4,18,0.00
2013-2-2,34.2,18.5,0.7,18.1,-1.2,-19.1,64,39,20,29.21,28.88,8,2,15,0.00
2013-2-3,35.6,27.5,21.4,18.9,10.7,-0.2,66,47,31,28.97,28.76,8,3,15,0.00
2013-2-4,47.7,29.2,20.8,28.0,7.7,-2.7,78,41,16,29.00,28.79,7,2,13,0.00
2013-2-5,42.3,35.5,32.0,31.0,24.1,14.2,83,65,35,28.85,28.76,8,1,13,0.00
2013-2-6,40.4,32.3,19.6,27.8,17.7,10.0,80,55,31,29.21,28.85,4,1,7,0.00
2013-2-7,66.1,34.8,18.7,30.2,17.1,-99.9,78,54,15,29.21,28.88,2,0,4,0.00
2013-2-8,40.6,31.9,25.6,37.3,20.1,8.1,89,61,33,29.12,28.73,11,2,17,0.00
2013-2-9,46.8,30.4,18.4,12.9,6.3,-4.1,54,36,17,29.29,29.12,6,2,12,0.00
2013-2-10,67.5,36.4,15.5,19.2,9.7,3.0,59,37,15,29.23,28.91,4,1,7,0.00
2013-2-11,69.3,50.8,38.5,51.1,20.7,5.0,88,38,15,28.91,28.67,17,4,25,0.00
2013-2-12,58.5,42.2,25.9,13.8,7.4,-1.0,52,24,17,28.97,28.76,9,4,16,0.00
2013-2-13,49.2,33.9,22.8,27.9,16.1,5.3,77,50,19,28.85,28.59,7,1,11,0.00
2013-2-14,52.7,38.4,30.9,19.5,13.3,4.1,56,37,18,28.91,28.82,6,2,13,0.00
2013-2-15,43.9,36.3,31.9,29.1,20.2,9.4,78,54,25,28.97,28.82,6,2,10,0.00
2013-2-16,38.1,28.5,19.0,23.8,7.7,-1.4,70,40,22,28.97,28.82,7,2,10,0.00
2013-2-17,35.8,22.0,10.9,11.9,-2.3,-11.6,56,31,19,29.18,28.82,9,4,17,0.00
2013-2-18,55.0,29.1,6.8,16.2,1.5,-14.6,57,31,16,29.21,28.85,6,1,12,0.00
2013-2-19,47.8,37.9,26.2,29.2,16.3,2.5,73,42,19,28.91,28.64,14,4,23,0.00
2013-2-20,37.0,25.1,21.9,7.3,0.9,-5.5,43,31,22,29.15,28.91,10,4,17,0.00
2013-2-21,42.4,26.7,21.4,6.6,0.7,-4.5,44,30,18,29.21,29.12,6,3,13,0.00
2013-2-22,51.4,36.3,25.2,32.2,18.1,2.9,74,47,33,29.15,28.88,4,1,6,0.00
2013-2-23,63.7,42.4,28.3,35.9,23.1,9.9,82,54,16,28.91,28.73,8,1,12,0.00
2013-2-24,40.7,30.3,20.5,26.5,13.6,5.2,77,50,29,29.09,28.79,9,2,13,0.00
2013-2-25,56.2,34.6,18.1,21.4,9.3,-2.6,63,38,17,29.12,28.91,6,1,9,0.00
2013-2-26,51.4,35.2,23.4,32.8,21.1,8.9,74,56,30,28.94,28.50,6,2,11,0.00
2013-2-27,45.7,40.6,34.0,37.9,27.2,19.1,86,61,36,28.67,28.50,9,3,13,0.00
2013-2-28,35.4,34.5,33.8,27.6,21.8,15.4,76,60,45,28.76,28.59,8,4,13,0.00
2013-3-1,39.2,33.6,30.0,23.5,12.7,5.2,65,42,29,28.88,28.73,6,2,11,0.00
2013-3-2,39.5,30.2,27.1,14.6,9.8,-0.9,56,40,22,28.88,28.82,6,2,10,0.00
2013-3-3,34.6,28.0,24.4,15.6,8.7,-0.7,59,41,25,28.94,28.85,7,3,12,0.00
2013-3-4,47.5,30.7,22.5,8.7,2.2,-4.3,47,28,17,29.06,28.94,8,3,13,0.00
2013-3-5,63.0,39.6,24.0,25.1,12.0,4.5,68,35,16,29.00,28.56,7,2,12,0.00
2013-3-6,53.4,37.3,32.5,29.1,22.4,13.7,79,57,29,29.03,28.56,4,1,8,0.00
2013-3-7,35.6,35.1,34.3,25.7,23.1,19.5,67,61,53,29.15,29.03,6,3,8,0.00
2013-3-25,34.9,33.7,32.9,29.3,24.9,21.4,80,71,59,28.64,28.41,5,2,8,0.00
2013-3-26,52.8,38.9,33.3,27.8,19.3,4.9,78,51,18,29.03,28.64,8,3,14,0.00
2013-3-27,50.9,36.9,31.8,26.5,17.1,-99.9,74,48,19,29.12,29.03,8,-2,14,0.00